Location: Lac de la Montagne noire
(46.1952°N, 74.2701°W)
Time: 12:56:23
(UTC-04:00)

ISS - Pass Details

Date: 30 March 2019
Orbit: 408 x 410 km, 51.6° (Epoch: 22 April)

Event Time Altitude Azimuth Distance (km) Brightness Sun altitude
Rises 20:26:11 0° 286° (WNW) 2,337 2.3 -11.5°
Reaches altitude 10° 20:28:26 10° 297° (WNW) 1,475 0.5 -11.9°
Maximum altitude 20:31:24 30° 1° (N) 763 -2.3 -12.4°
Enters shadow 20:33:54 13° 61° (ENE) 1,305 -1.6 -12.8°
